Hourly Data Report for April 22, 2017

OTTAWA INTL A
ONTARIO

45°19'00.000" N
75°40'00.000" W
114.90 m
6106001
71628
YOW

Download Data

Hourly Data (April 2017)
Hourly Data Report for April 22, 2017
TIME
LST
Temp Definition
°C
Dew Point Definition
°C
Rel Hum Definition
%
Precip. Amount Definition
mm

Wind Dir Definition
10's deg

Wind Spd Definition
km/h
Visibility Definition
km
Stn Press Definition
kPa
Hmdx Definition


Wind Chill Definition


Weather Definition


00:00 7.1 4.1 81   25 16 24.1 99.89     LegendNANA
01:00 6.9 3.9 81   26 17 24.1 99.89     Mostly Cloudy
02:00 6.7 3.9 82   27 16 24.1 99.89     LegendNANA
03:00 6.3 4.1 86   28 14 24.1 99.87     LegendNANA
04:00 6.1 4.1 87   27 13 24.1 99.88     Mostly Cloudy
05:00 5.7 4.0 89   28 17 16.1 99.96     Rain
06:00 5.0 4.1 94   28 17 16.1 100.01     Rain
07:00 4.9 4.3 96   27 16 4.8 100.06     Rain, Fog
08:00 4.7 3.7 93   29 17 16.1 100.09     Rain
09:00 4.9 3.6 91   29 18 24.1 100.15     LegendNANA
10:00 5.5 2.9 83   30 21 24.1 100.15     Cloudy
11:00 6.0 2.5 78   28 23 24.1 100.22     LegendNANA
12:00 7.2 2.7 73   30 18 24.1 100.24     LegendNANA
13:00 8.9 2.3 63   30 23 24.1 100.23     Mostly Cloudy
14:00 9.8 2.7 61   30 20 24.1 100.22     LegendNANA
15:00 10.5 1.4 53   33 15 24.1 100.22     LegendNANA
16:00 10.8 0.8 50   33 22 24.1 100.25     Mostly Cloudy
17:00 11.1 0.3 47   31 22 24.1 100.29     LegendNANA
18:00 10.5 0.3 49   32 19 24.1 100.29     LegendNANA
19:00 9.1 0.3 54   1 10 24.1 100.34     Mainly Clear
20:00 6.2 -0.1 64   4 10 24.1 100.40     LegendNANA
21:00 5.8 0.2 67   3 8 24.1 100.44     LegendNANA
22:00 7.3 -0.2 59   36 8 24.1 100.48     Clear
23:00 4.7 -0.3 70   34 7 24.1 100.51     LegendNANA

Notes on Data Quality.

Legend

  • E = Estimated
  • M = Missing
  • NA = Not Available*
  • [empty] = Indicates an unobserved value
Date modified: